TimeEDT,TemperatureF,Dew PointF,Humidity,Sea Level PressureIn,VisibilityMPH,Wind Direction,Wind SpeedMPH,Gust SpeedMPH,PrecipitationIn,Events,Conditions,WindDirDegrees,DateUTC
12:53 AM,60.1,52.0,75,30.00,10.0,SW,5.8,-,N/A,,Overcast,220,2013-07-29 04:53:00
1:53 AM,59.0,51.1,75,30.00,10.0,SW,4.6,-,N/A,,Mostly Cloudy,220,2013-07-29 05:53:00
2:53 AM,57.9,51.1,78,29.99,10.0,SSW,8.1,-,N/A,,Mostly Cloudy,210,2013-07-29 06:53:00
3:53 AM,59.0,51.1,75,29.99,10.0,SSW,8.1,-,N/A,,Overcast,210,2013-07-29 07:53:00
4:53 AM,60.1,51.1,72,30.00,10.0,SW,10.4,-,N/A,,Overcast,220,2013-07-29 08:53:00
5:53 AM,60.1,51.1,72,30.00,10.0,WSW,10.4,-,N/A,,Overcast,240,2013-07-29 09:53:00
6:53 AM,60.1,52.0,75,30.02,10.0,SW,8.1,-,N/A,,Overcast,230,2013-07-29 10:53:00
7:53 AM,60.1,52.0,75,30.03,10.0,SW,6.9,-,N/A,,Overcast,230,2013-07-29 11:53:00
8:53 AM,63.0,53.1,70,30.05,10.0,WSW,8.1,-,N/A,,Overcast,250,2013-07-29 12:53:00
9:53 AM,64.9,55.0,70,30.06,10.0,West,10.4,-,N/A,,Overcast,260,2013-07-29 13:53:00
10:27 AM,64.4,53.6,68,30.08,10.0,WSW,10.4,-,N/A,,Overcast,240,2013-07-29 14:27:00
10:38 AM,66.2,53.6,64,30.08,10.0,West,9.2,-,N/A,,Overcast,270,2013-07-29 14:38:00
10:53 AM,66.0,54.0,65,30.07,10.0,West,11.5,-,N/A,,Overcast,270,2013-07-29 14:53:00
11:40 AM,66.2,55.4,68,30.09,10.0,WSW,10.4,-,0.00,,Overcast,240,2013-07-29 15:40:00
11:53 AM,68.0,57.0,68,30.09,10.0,WSW,10.4,-,0.00,,Overcast,250,2013-07-29 15:53:00
12:53 PM,66.9,55.0,66,30.10,10.0,WSW,12.7,-,N/A,,Overcast,240,2013-07-29 16:53:00
1:07 PM,66.2,55.4,68,30.11,9.0,West,10.4,-,0.01,Rain,Light Rain,280,2013-07-29 17:07:00
1:29 PM,69.8,55.4,60,30.11,10.0,NW,8.1,-,0.01,,Overcast,310,2013-07-29 17:29:00
1:53 PM,66.9,54.0,63,30.11,10.0,NW,12.7,-,0.01,,Overcast,310,2013-07-29 17:53:00
2:09 PM,69.8,53.6,56,30.12,10.0,WNW,12.7,-,N/A,,Overcast,290,2013-07-29 18:09:00
2:53 PM,72.0,54.0,53,30.10,10.0,West,11.5,19.6,N/A,,Overcast,280,2013-07-29 18:53:00
3:53 PM,70.0,54.0,57,30.12,10.0,WNW,12.7,-,N/A,,Overcast,300,2013-07-29 19:53:00
4:53 PM,73.0,55.0,53,30.12,10.0,NW,12.7,-,N/A,,Overcast,320,2013-07-29 20:53:00
5:53 PM,73.0,54.0,51,30.13,10.0,NW,8.1,-,N/A,,Mostly Cloudy,320,2013-07-29 21:53:00
6:53 PM,72.0,52.0,49,30.14,10.0,NW,8.1,-,N/A,,Partly Cloudy,310,2013-07-29 22:53:00
7:53 PM,70.0,53.1,55,30.15,10.0,Calm,Calm,-,N/A,,Clear,0,2013-07-29 23:53:00
8:53 PM,66.9,53.1,61,30.16,10.0,NW,3.5,-,N/A,,Clear,310,2013-07-30 00:53:00
9:53 PM,64.0,53.1,67,30.18,10.0,Calm,Calm,-,N/A,,Clear,0,2013-07-30 01:53:00
10:53 PM,63.0,54.0,72,30.19,10.0,Calm,Calm,-,N/A,,Clear,0,2013-07-30 02:53:00
11:53 PM,61.0,53.1,75,30.19,10.0,NW,9.2,-,N/A,,Clear,320,2013-07-30 03:53:00